Preview of NWS' New Version of Forecast
This preview is not operational and should not be used for support decisions.

Regional Weather Roundup (RWR)

Issued by National Weather Service (NWS)

                            
000
ASUS43 KIND 221009
RWRIN 

WEATHER ROUNDUP FOR INDIANA
NATIONAL WEATHER SERVICE INDIANAPOLIS IN
600 AM EDT MON APR 22 2019

NOTE: "FAIR" INDICATES FEW OR NO CLOUDS BELOW 12,000 FEET WITH NO
SIGNIFICANT WEATHER AND/OR OBSTRUCTIONS TO VISIBILITY.

* - STATION DOES NOT REPORT WEATHER SUCH AS PRECIPITATION OR FOG.

+ - STATION NOT QUALITY CONTROLLED BY THE NATIONAL WEATHER SERVICE.
    USE DATA WITH CAUTION...ESPECIALLY DEWPOINT AND RELATIVE
    HUMIDITY OBSERVATIONS.

INZ001>003-010>013-019-020-221100-
NORTHWEST INDIANA
  
CITY           SKY/WX    TMP DP  RH WIND       PRES   REMARKS
GARY /AIRPORT/ MOCLDY    55  37  50 S10       30.08R                  
KNOX *+        FAIR      50  36  57 NE9       30.10S                  
LA PORTE +     FAIR      51  37  60 S6        30.11S                  
MICHIGAN CITY+ FAIR      54  32  43 S8        30.10R                  
MONTICELLO +   FAIR      51  35  55 SE3       30.11S                  
RENSSELAER +   FAIR      50  37  62 CALM      30.10R                  
VALPARAISO     FAIR      54  34  46 SE7       30.10S                  

$$

LMZ046-743>745-221100-
SOUTHERN LAKE MICHIGAN
  
STATION/POSITION TIME  TEMP    WIND        PRES    WAVE
                       AIR SEA DIR/SP/G            HT
                 (UTC) (F)     (DEG/KT/KT) (MB)    (FT)
BURNS HARBOR     0940   59     170/  6/  8 1018.6S
MICHIGAN CITY    0940   58     140/ 14/ 17   N/A
5NW MICH CITY    1000   52 46  170/  8/ 10   N/A     1

$$

INZ004-005-014>016-021>024-221100-
NORTH CENTRAL INDIANA
  
CITY           SKY/WX    TMP DP  RH WIND       PRES   REMARKS
GOSHEN         FAIR      49  45  86 SE7       30.14R                  
LOGANSPORT +   FAIR      45  39  81 SE6       30.13F                  
PERU/GRISSOM   FAIR      47  45  92 SE8       30.13R                  
PLYMOUTH *+    CLEAR     48  41  76 SE5       30.12S                  
ROCHESTER +    FAIR      52  43  71 SE6       30.13S                  
SOUTH BEND     FAIR      51  40  65 SE9       30.12R                  
WARSAW +       FAIR      50  43  76 SE3       30.14R                  

$$

INZ006>009-017-018-025>027-221100-
NORTHEAST INDIANA
  
CITY           SKY/WX    TMP DP  RH WIND       PRES   REMARKS
ANGOLA *+      FAIR      48  45  87 S6        30.15S                  
AUBURN +       FAIR      46  43  87 CALM      30.17S                  
FORT WAYNE     FAIR      49  46  90 SE8       30.16R                  
HUNTINGTON +   FAIR      49  44  83 SE6       30.15R                  

$$

INZ028-029-035-036-043>045-051>053-221100-
WEST CENTRAL INDIANA
  
CITY           SKY/WX    TMP DP  RH WIND       PRES   REMARKS
CRAWFORDSVL +  FAIR      46  38  75 SE7       30.11S                  
GREENCASTLE +  FAIR      46  36  66 CALM      30.13R                  
LAFAYETTE      FAIR      48  36  63 SE5       30.10S                  
TERRE HAUTE    FAIR      47  39  74 E3        30.11R                  

$$

INZ030>032-037>040-046>048-054>057-064-065-221100-
CENTRAL INDIANA
  
CITY           SKY/WX    TMP DP  RH WIND       PRES   REMARKS
ANDERSON +     FAIR      50  44  80 SE7       30.16R                  
FISHERS *+     FAIR      46  43  87 CALM      30.14S                  
FRANKFORT +    FAIR      47  40  75 SE8       30.14R                  
INDIANAPOLIS   FAIR      48  37  65 E7        30.13R                  
-EAGLE CREEK   FAIR      47  38  71 CALM      30.13R                  
KOKOMO +       FAIR      47  42  83 SE8       30.14R                  
MARION +       FAIR      48  42  80 CALM      30.16R                  
MT COMFORT *+  FAIR      48  45  87 SE7       30.14F                  
SHELBYVILLE    FAIR      48  40  73 SE7       30.14S                  
ZIONSVILLE +   FAIR      46  39  74 SE6       30.14S                  

$$

INZ033-034-041-042-049-050-058-059-221100-
EAST CENTRAL INDIANA
  
CITY           SKY/WX    TMP DP  RH WIND       PRES   REMARKS
MUNCIE         FAIR      52  44  74 S6        30.16R                  
PORTLAND +     FAIR      50  45  81 SE5       30.17S                  
RICHMOND +     FAIR      43  43 100 SE9       30.19S                  

$$

INZ060-061-067>069-081>083-085>088-221100-
SOUTHWEST INDIANA
  
CITY           SKY/WX    TMP DP  RH WIND       PRES   REMARKS
EVANSVILLE     FAIR      48  43  82 CALM      30.12S                  
HUNTINGBURG +  FAIR      49  40  71 SE5       30.13S                  
WASHINGTON +   FAIR      52  40  65 S8        30.11F                  

$$

INZ062-063-066-070>080-084-089>092-221100-
SOUTH CENTRAL AND SOUTHEAST INDIANA
  
CITY           SKY/WX    TMP DP  RH WIND       PRES   REMARKS
BATESVILLE +   CLEAR     46  46 100 CALM      30.17S                  
BEDFORD +      FAIR      48  37  66 SE3       30.13S                  
BLOOMINGTON    FAIR      48  39  71 SE7       30.13R                  
FRENCH LICK *+ FAIR      48  37  66 SE3       30.14R                  
JEFFERSONVL +  FAIR      43  43 100 CALM      30.16S FOG              
MADISON *+     FAIR      45  43  93 E3        30.17F                  
NORTH VERNON + FAIR      46  39  76 E6        30.15F                  
SEYMOUR +      FAIR      45  41  87 CALM      30.15R                  

$$